Weather History for Jacksonville, FL

Change the Weather History Date:

Thursday, July 25, 2013

  Actual Average Record
Temperature  
Mean Temperature 81 °F 83 °F  
Max Temperature 89 °F 92 °F 101 °F (1940)
Min Temperature 72 °F 73 °F 64 °F (1977)
Degree Days  
Heating Degree Days 0 0  
Month to date heating degree days 0 0  
Since 1 June heating degree days 0 0  
Since 1 July heating degree days 0 0  
Cooling Degree Days 16 18  
Month to date cooling degree days 387 432  
Year to date cooling degree days 1296 1365  
Since 1 June cooling degree days 860 881  
Growing Degree Days 30 (Base 50)    
Moisture  
Dew Point 73 °F    
Average Humidity 80    
Maximum Humidity 100    
Minimum Humidity 59    
Precipitation  
Precipitation 0.08 in 0.22 in 2.14 in (1957)
Month to date precipitation 7.36 5.32  
Year to date precipitation 29.12 27.33  
Snow  
Snow 0.00 in 0.00 in 0.00 in (2002)
Month to date snowfall 0.0 0.0  
Since 1 June snowfall 0.0 0.0  
Since 1 July snowfall 0.0 0.0  
Snow Depth 0.00 in    
Sea Level Pressure  
Sea Level Pressure 29.90 in    
Wind  
Wind Speed 6 mph (West)    
Max Wind Speed 13 mph    
Max Gust Speed 24 mph    
Visibility 10 miles    
Events      
T = Trace of Precipitation, MM = Missing Value Source: NWS Daily Summary

Daily Weather History Graph

Daily Weather History Graph

Search for Another Location

Airport:

Trip Planner

Search our weather history database for the weather conditions in past years. The results will help you decide how hot, cold, wet, or windy it might be!

Date:

Astronomy

Jul. 25, 2013 Rise Set
Actual Time 6:40 AM EDT 8:25 PM EDT
Civil Twilight 6:14 AM EDT 8:51 PM EDT
Nautical Twilight 5:42 AM EDT 9:23 PM EDT
Astronomical Twilight 5:08 AM EDT 9:57 PM EDT
Moon 10:26 PM EDT (7/25) 9:50 AM EDT (7/25)
Length of Visible Light 14h 37m
Length of Day
13h 44m
Waning Gibbous, 88% of the Moon is Illuminated
Jul 25
Waning Gibbous
Jul 29
Last Quarter
Aug 6
New
Aug 14
First Quarter
Aug 20
Full

Hourly Weather History & Observations

Time (EDT) Temp. Heat Index Dew Point Humidity Pressure Visibility Wind Dir Wind Speed Gust Speed Precip Events Conditions
12:56 AM 73.9 °F - 71.1 °F 91% 29.86 in 10.0 mi SW 4.6 mph - N/A   Mostly Cloudy
1:56 AM 73.0 °F - 71.1 °F 93% 29.86 in 10.0 mi WSW 4.6 mph - N/A   Mostly Cloudy
2:56 AM 73.0 °F - 71.1 °F 93% 29.86 in 10.0 mi WSW 5.8 mph - N/A   Mostly Cloudy
3:56 AM 73.0 °F - 71.1 °F 93% 29.83 in 10.0 mi SSW 6.9 mph - N/A   Mostly Cloudy
4:56 AM 72.0 °F - 70.0 °F 93% 29.85 in 10.0 mi WSW 5.8 mph - N/A   Mostly Cloudy
5:56 AM 72.0 °F - 70.0 °F 93% 29.86 in 10.0 mi West 4.6 mph - N/A   Mostly Cloudy
6:40 AM 71.6 °F - 71.6 °F 100% 29.87 in 10.0 mi WSW 6.9 mph - N/A   Mostly Cloudy
6:46 AM 71.6 °F - 71.6 °F 100% 29.87 in 10.0 mi WSW 5.8 mph - N/A   Mostly Cloudy
7:56 AM 73.0 °F - 71.1 °F 93% 29.89 in 10.0 mi WSW 6.9 mph - N/A   Mostly Cloudy
8:05 AM 73.4 °F - 71.6 °F 94% 29.89 in 10.0 mi West 6.9 mph - N/A   Mostly Cloudy
8:56 AM 75.0 °F - 71.1 °F 87% 29.90 in 10.0 mi West 9.2 mph - N/A   Overcast
9:56 AM 75.9 °F - 71.1 °F 85% 29.92 in 10.0 mi WNW 9.2 mph - N/A   Overcast
10:42 AM 78.8 °F - 71.6 °F 78% 29.92 in 10.0 mi West 9.2 mph - N/A   Overcast
10:56 AM 78.1 °F - 73.0 °F 84% 29.92 in 10.0 mi SW 9.2 mph - N/A   Overcast
11:35 AM 80.6 °F 85.4 °F 73.4 °F 79% 29.92 in 10.0 mi West 6.9 mph - N/A   Mostly Cloudy
11:56 AM 82.9 °F 89.4 °F 73.9 °F 74% 29.92 in 10.0 mi West 6.9 mph - N/A   Mostly Cloudy
12:56 PM 84.9 °F 92.1 °F 73.9 °F 69% 29.93 in 10.0 mi WNW 6.9 mph - N/A   Mostly Cloudy
1:56 PM 88.0 °F 95.6 °F 73.0 °F 61% 29.92 in 10.0 mi West 6.9 mph - N/A   Overcast
2:56 PM 87.1 °F 94.5 °F 73.0 °F 63% 29.91 in 10.0 mi WSW 11.5 mph - N/A   Overcast
3:56 PM 88.0 °F 96.5 °F 73.9 °F 63% 29.91 in 10.0 mi West 9.2 mph - N/A   Overcast
4:56 PM 88.0 °F 97.5 °F 75.0 °F 65% 29.90 in 10.0 mi West 9.2 mph - 0.08 in   Mostly Cloudy
5:56 PM 89.1 °F 97.0 °F 73.0 °F 59% 29.90 in 10.0 mi WNW 6.9 mph - N/A   Mostly Cloudy
6:56 PM 88.0 °F 94.7 °F 72.0 °F 59% 29.90 in 10.0 mi WNW 5.8 mph - N/A   Mostly Cloudy
7:56 PM 84.9 °F 92.1 °F 73.9 °F 69% 29.92 in 10.0 mi NNW 4.6 mph - N/A   Mostly Cloudy
8:56 PM 82.0 °F 88.6 °F 75.0 °F 79% 29.94 in 10.0 mi Calm Calm - N/A   Mostly Cloudy
9:56 PM 81.0 °F 87.3 °F 75.9 °F 85% 29.95 in 10.0 mi Calm Calm - N/A   Mostly Cloudy
10:56 PM 79.0 °F - 75.0 °F 88% 29.96 in 9.0 mi Calm Calm - N/A   Scattered Clouds
11:56 PM 75.9 °F - 75.0 °F 97% 29.96 in 7.0 mi Calm Calm - N/A   Scattered Clouds